Tracking 18945 objects as of 19-Jan-2018
HD Live streaming from Space Station
objects crossing your sky now

COSMOS 1195

Track COSMOS 1195 now!
10-day predictions
COSMOS 1195 is classified as:


NORAD ID: 11878
Int'l Code: 1980-058D
Perigee: 1,457.0 km
Apogee: 1,481.5 km
Inclination: 74.0 °
Period: 115.1 minutes
Semi major axis: 7840 km
RCS: 0.7127 m2 (medium)
Launch date: July 9, 1980
Source: Commonwealth of Independent States (former USSR) (CIS)
Launch site: PLESETSK MISSILE AND SPACE COMPLEX (PKMTR)
aabbcc
Your satellite tracking list
Your tracking list is empty




NASA's NSSDC Master Catalog

Two Line Element Set (TLE):
1 11878U 80058D   18018.56348622 -.00000001 +00000-0 +95421-4 0  9997
2 11878 074.0178 061.2541 0015610 028.4091 124.2730 12.50569990713343
Source of the keplerian elements: AFSPC